Location: Unspecified
(44.0704°N, 88.6889°W)
Time: 11:30:01
(UTC+02:00)

Vanguard 2 Rocket - Pass Details

Date: 16 August 2020
Orbit: 554 x 3326 km, 32.9° (Epoch: 22 September)

Event Time Altitude Azimuth Distance (km) Brightness Sun altitude
Rises 04:42:44 0° 264° (W) 4,048 10.9 -17.1°
Reaches altitude 10° 04:45:32 10° 252° (WSW) 3,406 10.2 -17.5°
Maximum altitude 04:52:56 29° 197° (SSW) 3,007 9.3 -18.5°
Enters shadow 04:59:21 20° 159° (SSE) 4,130 9.7 -19.3°
